FW9909 Weather Reports


Display with metric or nautical units.
time (UTC)temp
F
wind
direction
speed
MPH
gust
MPH
rain 1hr
in
rain 24hr
in
rain mn
in
humidity
%
barometer
mb
20260508080524 50 183 2.0 5.0 0.00 0.00 0.00 78 1013.2
20260508075522 50 123 2.0 4.0 0.00 0.00 0.00 78 1013.2
20260508074520 50 128 3.0 5.0 0.00 0.00 0.00 78 1013.4
20260508073518 50 115 2.0 4.0 0.00 0.00 0.00 78 1013.5
20260508072516 50 122 2.0 4.0 0.00 0.00 0.00 77 1013.7
20260508071535 50 121 3.0 5.0 0.00 0.00 0.00 76 1013.7
20260508070533 50 122 1.0 4.0 0.00 0.00 0.00 76 1013.9
20260508065531 50 111 2.0 4.0 0.00 0.00 0.00 76 1014.0
20260508064529 50 117 2.0 3.0 0.00 0.00 0.00 76 1013.9
20260508063547 50 118 2.0 4.0 0.00 0.00 0.00 75 1014.0
20260508062526 50 112 2.0 4.0 0.00 0.00 0.00 78 1014.1
20260508061523 50 94 2.0 2.0 0.00 0.00 0.00 77 1014.1
20260508060522 50 103 2.0 4.0 0.00 0.00 0.00 77 1014.0
20260508055520 50 106 2.0 3.0 0.00 0.00 0.00 76 1014.2
20260508054538 50 96 2.0 3.0 0.00 0.00 0.00 77 1014.1
20260508053516 50 119 3.0 4.0 0.00 0.00 0.00 78 1014.1
20260508052554 50 115 2.0 4.0 0.00 0.00 0.00 79 1014.3
20260508051613 49 115 2.0 4.0 0.00 0.00 0.00 80 1014.4
20260508050531 50 110 2.0 3.0 0.00 0.00 0.00 78 1014.5
20260508045529 50 113 3.0 4.0 0.00 0.00 0.00 79 1014.5
20260508044527 50 98 1.0 3.0 0.00 0.00 0.00 78 1014.6
20260508043525 51 107 2.0 3.0 0.00 0.00 0.00 75 1014.7
20260508042523 50 105 2.0 4.0 0.00 0.00 0.00 76 1014.8
20260508041521 51 91 1.0 2.0 0.00 0.00 0.00 75 1015.0
20260508040520 51 81 2.0 2.0 0.00 0.00 0.00 74 1015.0
20260508035518 51 80 2.0 2.0 0.00 0.00 0.00 74 1014.9
20260508034536 51 77 2.0 2.0 0.00 0.00 0.00 74 1015.0
20260508033534 52 77 1.0 2.0 0.00 0.00 0.00 74 1015.0
20260508032532 52 98 2.0 3.0 0.00 0.00 0.00 73 1015.1
20260508031530 52 64 1.0 2.0 0.00 0.00 0.00 71 1015.1
20260508030529 52 71 1.0 2.0 0.00 0.00 0.00 71 1015.0
20260508025527 53 57 2.0 2.0 0.00 0.00 0.00 70 1014.9
20260508024525 53 62 1.0 2.0 0.00 0.00 0.00 69 1014.8
20260508023543 54 91 2.0 2.0 0.00 0.00 0.00 68 1014.6
20260508022521 54 70 1.0 2.0 0.00 0.00 0.00 66 1014.4
20260508021519 55 65 2.0 2.0 0.00 0.00 0.00 64 1014.2
20260508020517 56 68 2.0 2.0 0.00 0.00 0.00 62 1014.0
20260508015535 57 83 1.0 2.0 0.00 0.00 0.00 60 1014.0
20260508014534 58 68 2.0 3.0 0.00 0.00 0.00 58 1014.1
20260508013532 58 73 2.0 3.0 0.00 0.00 0.00 56 1013.9
20260508012530 60 63 2.0 2.0 0.00 0.00 0.00 53 1013.9
20260508011528 61 73 1.0 2.0 0.00 0.00 0.00 52 1013.7
20260508010546 62 182 0.0 3.0 0.00 0.00 0.00 49 1013.6
20260508005524 62 239 2.0 3.0 0.00 0.00 0.00 48 1013.5
20260508004523 63 250 2.0 5.0 0.00 0.00 0.00 47 1013.5
20260508003521 63 245 2.0 5.0 0.00 0.00 0.00 46 1013.6
20260508002539 63 229 4.0 7.0 0.00 0.00 0.00 45 1013.6
20260508001517 64 221 3.0 6.0 0.00 0.00 0.00 45 1013.6
20260508000535 64 240 3.0 8.0 0.00 0.00 0.00 45 1013.6
20260507235553 64 245 4.0 7.0 0.00 0.00 0.00 45 1013.6
20260507234531 64 233 4.0 9.0 0.00 0.00 0.00 44 1013.7
20260507233549 65 237 5.0 10.0 0.00 0.00 0.00 43 1013.7
20260507232527 65 281 2.0 4.0 0.00 0.00 0.00 44 1013.7
20260507231526 65 260 4.0 10.0 0.00 0.00 0.00 44 1013.7
20260507230524 66 222 2.0 6.0 0.00 0.00 0.00 43 1013.9
20260507225522 66 241 5.0 9.0 0.00 0.00 0.00 42 1014.0
20260507224520 67 237 4.0 8.0 0.00 0.00 0.00 42 1014.1
20260507223518 66 188 2.0 5.0 0.00 0.00 0.00 44 1014.2
20260507222516 67 240 3.0 9.0 0.00 0.00 0.00 42 1014.4
20260507221535 68 243 4.0 9.0 0.00 0.00 0.00 41 1014.5
20260507220533 68 245 5.0 10.0 0.00 0.00 0.00 41 1014.5
20260507215531 68 256 4.0 6.0 0.00 0.00 0.00 40 1014.5
20260507214530 68 247 4.0 8.0 0.00 0.00 0.00 40 1014.5
20260507213527 69 246 5.0 13.0 0.00 0.00 0.00 38 1014.5
20260507212545 69 264 2.0 10.0 0.00 0.00 0.00 40 1014.7
20260507211523 69 248 4.0 9.0 0.00 0.00 0.00 39 1014.6
20260507210522 69 279 3.0 7.0 0.00 0.00 0.00 39 1014.7
20260507205520 68 1 4.0 8.0 0.00 0.00 0.00 39 1014.9
20260507204518 68 296 4.0 8.0 0.00 0.00 0.00 37 1015.1
20260507203516 68 242 4.0 7.0 0.00 0.00 0.00 38 1015.3
20260507202534 67 243 7.0 12.0 0.00 0.00 0.00 37 1015.4
20260507201532 68 238 7.0 14.0 0.00 0.00 0.00 37 1015.4
20260507200530 68 240 3.0 9.0 0.00 0.00 0.00 37 1015.6
20260507195529 67 241 4.0 8.0 0.00 0.00 0.00 37 1015.8
20260507194527 68 245 4.0 9.0 0.00 0.00 0.00 38 1015.8
20260507193545 68 245 5.0 10.0 0.00 0.00 0.00 37 1016.0
20260507192523 67 275 1.0 5.0 0.00 0.00 0.00 40 1016.1
20260507191521 67 233 4.0 11.0 0.00 0.00 0.00 39 1016.2
20260507190519 68 242 3.0 7.0 0.00 0.00 0.00 38 1016.2
20260507185537 67 277 3.0 7.0 0.00 0.00 0.00 37 1016.3
20260507184515 67 257 4.0 10.0 0.00 0.00 0.00 38 1016.4
20260507183534 66 210 3.0 6.0 0.00 0.00 0.00 40 1016.5
20260507182532 65 246 5.0 9.0 0.00 0.00 0.00 38 1016.5
20260507181530 65 238 5.0 10.0 0.00 0.00 0.00 37 1016.8
20260507180528 65 212 4.0 9.0 0.00 0.00 0.00 40 1016.9
20260507175546 65 243 3.0 7.0 0.00 0.00 0.00 40 1017.0
20260507174524 65 252 4.0 9.0 0.00 0.00 0.00 39 1017.3
20260507173602 65 237 3.0 9.0 0.00 0.00 0.00 38 1017.5
20260507172521 64 235 2.0 8.0 0.00 0.00 0.00 40 1017.7
20260507171539 64 237 4.0 8.0 0.00 0.00 0.00 39 1017.8
20260507170517 64 247 5.0 10.0 0.00 0.00 0.00 39 1017.8
20260507165515 63 255 2.0 4.0 0.00 0.00 0.00 39 1017.9
20260507164533 63 281 4.0 6.0 0.00 0.00 0.00 39 1018.0
20260507163532 63 300 3.0 6.0 0.00 0.00 0.00 37 1018.1
20260507162529 63 314 3.0 6.0 0.00 0.00 0.00 39 1018.2
20260507161548 62 290 3.0 7.0 0.00 0.00 0.00 38 1018.1
20260507160526 62 257 2.0 5.0 0.00 0.00 0.00 38 1018.4
20260507155524 63 230 3.0 6.0 0.00 0.00 0.00 41 1018.4
20260507154542 61 235 2.0 6.0 0.00 0.00 0.00 42 1018.6
20260507153520 62 232 4.0 7.0 0.00 0.00 0.00 40 1018.5
20260507152518 61 271 2.0 8.0 0.00 0.00 0.00 41 1018.4
20260507151516 61 217 2.0 7.0 0.00 0.00 0.00 47 1018.4
20260507150535 59 213 2.0 5.0 0.00 0.00 0.00 46 1018.4
20260507145533 59 219 3.0 5.0 0.00 0.00 0.00 46 1018.4
20260507144531 58 190 3.0 6.0 0.00 0.00 0.00 48 1018.5
20260507143529 58 200 3.0 7.0 0.00 0.00 0.00 46 1018.8
20260507142527 57 235 4.0 7.0 0.00 0.00 0.00 48 1018.8
20260507141525 56 202 2.0 7.0 0.00 0.00 0.00 53 1018.7
20260507140523 55 222 3.0 5.0 0.00 0.00 0.00 55 1018.6
20260507135522 55 244 2.0 5.0 0.00 0.00 0.00 54 1018.8
20260507134520 55 211 2.0 4.0 0.00 0.00 0.00 57 1018.9
20260507133518 54 273 2.0 4.0 0.00 0.00 0.00 59 1018.8
20260507132556 53 222 1.0 3.0 0.00 0.00 0.00 62 1018.8
20260507131534 51 204 1.0 4.0 0.00 0.00 0.00 68 1018.8
20260507130612 50 291 1.0 3.0 0.00 0.00 0.00 68 1018.7
20260507125530 48 268 1.0 3.0 0.00 0.00 0.00 72 1018.8
20260507124549 47 173 2.0 5.0 0.00 0.00 0.00 77 1018.7
20260507123527 45 210 2.0 5.0 0.00 0.00 0.00 82 1018.5
20260507122525 43 346 2.0 4.0 0.00 0.00 0.00 86 1018.6
20260507121523 42 306 0.0 2.0 0.00 0.00 0.00 88 1018.5
20260507120542 42 60 0.0 2.0 0.00 0.00 0.00 89 1018.4
20260507115519 42 0.0 2.0 0.00 0.00 0.00 90 1018.5
20260507114518 42 91 1.0 2.0 0.00 0.00 0.00 91 1018.1
20260507113516 42 79 3.0 5.0 0.00 0.00 0.00 91 1018.1
20260507112534 41 59 2.0 4.0 0.00 0.00 0.00 90 1018.0
20260507111552 41 93 2.0 4.0 0.00 0.00 0.00 89 1017.8
20260507110530 41 80 2.0 3.0 0.00 0.00 0.00 87 1017.7
20260507105549 42 97 2.0 4.0 0.00 0.00 0.00 86 1017.7
20260507104526 42 122 3.0 5.0 0.00 0.00 0.00 86 1017.7
20260507103544 41 49 2.0 4.0 0.00 0.00 0.00 87 1017.9
20260507102543 41 95 1.0 5.0 0.00 0.00 0.00 88 1017.7
20260507101521 41 5 3.0 5.0 0.00 0.00 0.00 89 1017.5
20260507100519 40 99 2.0 3.0 0.00 0.00 0.00 88 1017.6
20260507095517 39 104 1.0 4.0 0.00 0.00 0.00 89 1017.9
20260507094535 39 74 1.0 2.0 0.00 0.00 0.00 90 1017.9
20260507093534 38 75 0.0 2.0 0.00 0.00 0.00 89 1017.8
20260507092532 39 101 1.0 2.0 0.00 0.00 0.00 88 1017.8
20260507091550 38 108 2.0 2.0 0.00 0.00 0.00 88 1017.8
20260507090528 39 71 1.0 2.0 0.00 0.00 0.00 87 1017.7
20260507085526 39 83 1.0 2.0 0.00 0.00 0.00 86 1017.7
20260507084524 39 80 1.0 2.0 0.00 0.00 0.00 85 1017.5
20260507083523 39 65 1.0 2.0 0.00 0.00 0.00 84 1017.5
20260507082521 40 68 2.0 2.0 0.00 0.00 0.00 82 1017.5
20260507081519 40 62 2.0 2.0 0.00 0.00 0.00 80 1017.5